• In Germany
  • List of Countries
  • For 7 days
  • Water Temperature
  • Satellite Maps
  • Weather Map
  • Weather Widgets
  • user-avatar
    Login

    Hourly Weather Klagenfurt

    Today, 21 August, Monday

    Time Temperature Precipitation Wind Pressure Humidity
    00:00 +10°C° 0 mm 1 mps 694 mmHg 80%
    01:00 +9°C° 0 mm 1 mps 693 mmHg 86%
    02:00 +9°C° 0 mm 1 mps 693 mmHg 86%
    03:00 +8°C° 0 mm 1 mps 693 mmHg 86%
    04:00 +8°C° 0 mm 1 mps 693 mmHg 86%
    05:00 +9°C° 0 mm 1 mps 693 mmHg 81%
    06:00 +11°C° 0 mm 1 mps 694 mmHg 76%
    07:00 +12°C° 0 mm 1 mps 694 mmHg 71%
    08:00 +14°C° 0 mm 1 mps 694 mmHg 62%
    09:00 +18°C° 0 mm 1 mps 695 mmHg 53%
    10:00 +20°C° 0 mm 1 mps 695 mmHg 45%
    11:00 +21°C° 0 mm 1 mps 695 mmHg 42%
    12:00 +22°C° 0 mm 1 mps 695 mmHg 40%
    13:00 +23°C° 0 mm 1 mps 695 mmHg 37%
    14:00 +21°C° 0 mm 2 mps 694 mmHg 38%
    15:00 +21°C° 0 mm 2 mps 694 mmHg 39%
    16:00 +21°C° 0 mm 2 mps 694 mmHg 40%
    17:00 +20°C° 0 mm 1 mps 694 mmHg 49%
    18:00 +16°C° 0 mm 1 mps 693 mmHg 59%
    19:00 +14°C° 0 mm 1 mps 693 mmHg 68%
    20:00 +13°C° 0 mm 1 mps 693 mmHg 71%
    21:00 +12°C° 0 mm 1 mps 694 mmHg 73%
    22:00 +11°C° 0 mm 1 mps 694 mmHg 76%
    23:00 +11°C° 0 mm 1 mps 694 mmHg 77%

    Tomorrow, 22 August, Tuesday

    Time Temperature Precipitation Wind Pressure Humidity
    00:00 +10°C° 0 mm 1 mps 694 mmHg 79%
    01:00 +10°C° 0 mm 1 mps 694 mmHg 80%
    02:00 +10°C° 0 mm 1 mps 694 mmHg 81%
    03:00 +9°C° 0 mm 1 mps 694 mmHg 83%
    04:00 +9°C° 0 mm 1 mps 693 mmHg 84%
    05:00 +10°C° 0 mm 1 mps 694 mmHg 80%
    06:00 +11°C° 0 mm 0 mps 694 mmHg 75%
    07:00 +12°C° 0 mm 0 mps 694 mmHg 71%
    08:00 +15°C° 0 mm 0 mps 695 mmHg 63%
    09:00 +19°C° 0 mm 1 mps 695 mmHg 55%
    10:00 +22°C° 0 mm 1 mps 695 mmHg 47%
    11:00 +23°C° 0 mm 1 mps 695 mmHg 45%
    12:00 +24°C° 0 mm 1 mps 695 mmHg 43%
    13:00 +25°C° 0 mm 1 mps 694 mmHg 41%
    14:00 +24°C° 0 mm 1 mps 694 mmHg 42%
    15:00 +24°C° 0 mm 1 mps 694 mmHg 44%
    16:00 +24°C° 0 mm 1 mps 693 mmHg 45%
    17:00 +21°C° 0 mm 1 mps 693 mmHg 55%
    18:00 +19°C° 0 mm 1 mps 692 mmHg 65%
    19:00 +16°C° 0 mm 1 mps 692 mmHg 75%
    20:00 +15°C° 0 mm 1 mps 692 mmHg 79%
    21:00 +14°C° 0 mm 1 mps 692 mmHg 83%
    22:00 +13°C° 0 mm 1 mps 692 mmHg 86%
    23:00 +12°C° 0 mm 1 mps 692 mmHg 87%

    Day after tomorrow, 23 August, Wednesday

    Time Temperature Precipitation Wind Pressure Humidity
    00:00 +12°C° 0 mm 1 mps 692 mmHg 88%
    01:00 +12°C° 0 mm 1 mps 691 mmHg 89%
    02:00 +11°C° 0 mm 1 mps 691 mmHg 89%
    03:00 +11°C° 0 mm 1 mps 691 mmHg 89%
    04:00 +11°C° 0 mm 1 mps 691 mmHg 89%
    05:00 +12°C° 0 mm 1 mps 692 mmHg 85%
    06:00 +13°C° 0 mm 1 mps 692 mmHg 80%
    07:00 +14°C° 0 mm 0 mps 692 mmHg 76%
    08:00 +18°C° 0 mm 1 mps 693 mmHg 67%
    09:00 +20°C° 0 mm 1 mps 694 mmHg 59%
    10:00 +23°C° 0 mm 1 mps 694 mmHg 50%
    11:00 +24°C° 0 mm 1 mps 694 mmHg 47%
    12:00 +25°C° 0 mm 1 mps 694 mmHg 45%
    13:00 +26°C° 0 mm 1 mps 694 mmHg 43%
    14:00 +26°C° 0 mm 1 mps 694 mmHg 44%
    15:00 +25°C° 0 mm 1 mps 693 mmHg 46%
    16:00 +25°C° 0 mm 1 mps 693 mmHg 48%
    17:00 +23°C° 0 mm 1 mps 693 mmHg 57%
    18:00 +21°C° 0 mm 1 mps 692 mmHg 67%
    19:00 +18°C° 0 mm 1 mps 692 mmHg 76%
    20:00 +16°C° 0 mm 1 mps 692 mmHg 79%
    21:00 +16°C° 0 mm 1 mps 692 mmHg 82%
    22:00 +15°C° 0 mm 1 mps 693 mmHg 85%
    23:00 +14°C° 0 mm 1 mps 692 mmHg 86%

    24 August, Thursday

    Time Temperature Precipitation Wind Pressure Humidity
    00:00 +14°C° 0 mm 1 mps 692 mmHg 87%
    01:00 +14°C° 0 mm 1 mps 692 mmHg 88%
    02:00 +13°C° 0 mm 1 mps 692 mmHg 88%
    03:00 +13°C° 0 mm 1 mps 692 mmHg 88%
    04:00 +13°C° 0 mm 1 mps 692 mmHg 88%
    05:00 +13°C° 0 mm 0 mps 692 mmHg 84%
    06:00 +14°C° 0 mm 0 mps 693 mmHg 80%
    07:00 +16°C° 0 mm 0 mps 693 mmHg 76%
    08:00 +19°C° 0 mm 0 mps 694 mmHg 66%
    09:00 +22°C° 0 mm 0 mps 694 mmHg 57%
    10:00 +27°C° 0 mm 1 mps 695 mmHg 47%
    11:00 +27°C° 0 mm 1 mps 695 mmHg 44%
    12:00 +28°C° 0 mm 1 mps 695 mmHg 42%
    13:00 +29°C° 0 mm 1 mps 695 mmHg 39%
    14:00 +29°C° 0 mm 1 mps 694 mmHg 41%
    15:00 +28°C° 0 mm 1 mps 694 mmHg 43%
    16:00 +28°C° 0 mm 2 mps 694 mmHg 45%
    17:00 +25°C° 0.1 mm 1 mps 693 mmHg 56%
    18:00 +23°C° 0.1 mm 1 mps 693 mmHg 66%
    19:00 +20°C° 0.1 mm 1 mps 693 mmHg 76%
    20:00 +20°C° 0.1 mm 1 mps 693 mmHg 79%
    21:00 +19°C° 0.1 mm 1 mps 693 mmHg 81%
    22:00 +18°C° 0.1 mm 1 mps 693 mmHg 84%
    23:00 +18°C° 0 mm 1 mps 693 mmHg 85%

    25 August, Friday

    Time Temperature Precipitation Wind Pressure Humidity
    00:00 +16°C° 0 mm 1 mps 693 mmHg 87%
    01:00 +16°C° 0 mm 1 mps 692 mmHg 88%
    02:00 +15°C° 0 mm 1 mps 692 mmHg 89%
    03:00 +15°C° 0 mm 1 mps 692 mmHg 89%
    04:00 +15°C° 0 mm 1 mps 692 mmHg 89%
    05:00 +16°C° 0 mm 1 mps 692 mmHg 86%
    06:00 +18°C° 0 mm 1 mps 693 mmHg 82%
    07:00 +17°C° 0 mm 0 mps 693 mmHg 78%
    08:00 +22°C° 0 mm 1 mps 694 mmHg 68%
    09:00 +25°C° 0 mm 1 mps 694 mmHg 58%
    10:00 +27°C° 0 mm 1 mps 695 mmHg 48%
    11:00 +28°C° 0 mm 1 mps 694 mmHg 45%
    12:00 +29°C° 0 mm 2 mps 694 mmHg 43%
    13:00 +30°C° 0 mm 2 mps 694 mmHg 40%
    14:00 +29°C° 0 mm 2 mps 694 mmHg 41%
    15:00 +29°C° 0 mm 2 mps 694 mmHg 42%
    16:00 +28°C° 0 mm 2 mps 693 mmHg 44%
    17:00 +26°C° 0 mm 2 mps 693 mmHg 54%
    18:00 +23°C° 0 mm 1 mps 692 mmHg 64%
    19:00 +21°C° 0 mm 1 mps 692 mmHg 74%
    20:00 +20°C° 0 mm 1 mps 692 mmHg 77%
    21:00 +19°C° 0 mm 1 mps 692 mmHg 80%
    22:00 +18°C° 0 mm 1 mps 692 mmHg 82%
    23:00 +18°C° 0 mm 1 mps 692 mmHg 83%

    26 August, Saturday

    Time Temperature Precipitation Wind Pressure Humidity
    00:00 +16°C° 0 mm 1 mps 692 mmHg 84%
    01:00 +16°C° 0 mm 1 mps 692 mmHg 85%
    02:00 +16°C° 0 mm 1 mps 692 mmHg 85%
    03:00 +15°C° 0 mm 1 mps 692 mmHg 85%
    04:00 +15°C° 0 mm 1 mps 692 mmHg 85%
    05:00 +16°C° 0 mm 1 mps 692 mmHg 81%
    06:00 +18°C° 0 mm 1 mps 692 mmHg 78%
    07:00 +18°C° 0 mm 0 mps 692 mmHg 74%
    08:00 +22°C° 0 mm 1 mps 693 mmHg 65%
    09:00 +25°C° 0 mm 1 mps 693 mmHg 56%
    10:00 +28°C° 0 mm 1 mps 694 mmHg 47%
    11:00 +29°C° 0 mm 1 mps 694 mmHg 44%
    12:00 +29°C° 0 mm 2 mps 694 mmHg 41%
    13:00 +30°C° 0 mm 2 mps 694 mmHg 39%
    14:00 +30°C° 0 mm 2 mps 693 mmHg 39%
    15:00 +30°C° 0 mm 2 mps 693 mmHg 40%
    16:00 +29°C° 0 mm 2 mps 693 mmHg 41%
    17:00 +27°C° 0 mm 2 mps 692 mmHg 51%
    18:00 +24°C° 0 mm 1 mps 692 mmHg 61%
    19:00 +21°C° 0 mm 1 mps 691 mmHg 71%
    20:00 +20°C° 0 mm 1 mps 691 mmHg 73%
    21:00 +19°C° 0 mm 1 mps 691 mmHg 76%
    22:00 +18°C° 0 mm 1 mps 691 mmHg 79%
    23:00 +18°C° 0 mm 1 mps 691 mmHg 80%
    Show more